CTN4426 ZZZZ-EDDH

Flight info

Callsign CTN4426
Flight time N/A
Altitude
Route
Aircraft

Departure

Time N/A
Airport ZZZZ

Arrival

Time 2026-04-26 13:00
Airport Hamburg Helmut Schmidt Airport (EDDH)
Time Latitude Longitude Altitude Speed Heading
2026-04-26 12:56 53.72651 10.18373 3722 ft 189 kts 231°
2026-04-26 12:56 53.71820 10.16685 3421 ft 183 kts 230°
2026-04-26 12:56 53.71022 10.15069 3108 ft 175 kts 231°
2026-04-26 12:56 53.70264 10.13524 2807 ft 167 kts 231°
2026-04-26 12:57 53.69538 10.12048 2479 ft 160 kts 231°
2026-04-26 12:57 53.68838 10.10632 2234 ft 154 kts 231°
2026-04-26 12:57 53.68151 10.09274 1915 ft 153 kts 231°
2026-04-26 12:58 53.66789 10.06518 1264 ft 145 kts 232°
2026-04-26 12:58 53.66158 10.05205 964 ft 144 kts 231°
2026-04-26 12:58 53.65523 10.03910 675 ft 141 kts 231°
2026-04-26 12:58 53.64905 10.02633 458 ft 139 kts 231°
2026-04-26 12:59 53.64276 10.01349 304 ft 142 kts 231°
2026-04-26 12:59 53.63663 10.00071 143 ft 142 kts 228°
2026-04-26 12:59 53.63031 9.98815 55 ft 136 kts 230°
2026-04-26 12:59 53.62488 9.97702 41 ft 100 kts 230°
2026-04-26 13:00 53.62267 9.97356 42 ft 14 kts 171°
2026-04-26 13:00 53.62211 9.97414 41 ft 8 kts 133°
2026-04-26 13:00 53.62186 9.97489 38 ft 7 kts 108°
2026-04-26 13:00 53.62183 9.97555 40 ft 5 kts 83°
2026-04-26 13:01 53.62195 9.97610 38 ft 5 kts 61°
2026-04-26 13:01 53.62213 9.97651 40 ft 4 kts 51°
2026-04-26 13:01 53.62230 9.97688 40 ft 4 kts 50°
2026-04-26 13:01 53.62247 9.97722 40 ft 4 kts 50°
2026-04-26 13:02 53.62263 9.97754 40 ft 4 kts 50°
2026-04-26 13:02 53.62292 9.97810 41 ft 8 kts 49°
2026-04-26 13:02 53.62338 9.97900 41 ft 12 kts 49°
2026-04-26 13:02 53.62397 9.98024 41 ft 14 kts 63°
2026-04-26 13:03 53.62449 9.98186 41 ft 17 kts 64°
2026-04-26 13:03 53.62481 9.98377 42 ft 18 kts 79°
2026-04-26 13:03 53.62506 9.98588 42 ft 19 kts 78°
2026-04-26 13:03 53.62533 9.98815 43 ft 20 kts 79°
2026-04-26 13:04 53.62559 9.99047 44 ft 21 kts 79°
2026-04-26 13:04 53.62586 9.99290 45 ft 21 kts 79°
2026-04-26 13:04 53.62614 9.99541 46 ft 22 kts 79°
2026-04-26 13:04 53.62649 9.99789 46 ft 19 kts 50°
2026-04-26 13:05 53.62742 9.99903 46 ft 15 kts 32°
2026-04-26 13:05 53.62826 9.99983 43 ft 13 kts 30°
2026-04-26 13:05 53.62892 10.00052 44 ft 10 kts 28°
2026-04-26 13:05 53.62924 10.00112 46 ft 5 kts 80°
2026-04-26 13:06 53.62920 10.00143 46 ft 1 kts 121°
2026-04-26 13:06 53.62907 10.00176 43 ft 3 kts 123°
2026-04-26 13:06 53.62903 10.00185 44 ft 0 kts 123°